Torna al catalogo

OV1-5

AttivoMilitareLEO
NORAD 2122·PAYLOAD·🇺🇸 United States

Lanciato Mar 30, 1966 da Vandenberg Space Force Base

Loading…

Prossimi Passaggi (prossime 24 ore)

TLE

AggiornatoSource: Space-Track

Epoca: Sep 14, 2026, 02:23 UTC

1 02122U 66025B   26257.09962518  .00000301  00000-0  52340-4 0  9990
2 02122 144.6358  13.7763 0047155 170.1604 189.9991 13.66178228 17231

Traccia OV1-5 in tempo reale con AllMySat

Download on the App Store